User: anonymous   Login
Location: Unspecified
(0.0000°N, 0.0000°E)
Time: 09:12:07
(UTC+00:00)
Language:

AO-73 - Orbit

View from above orbital plane
View from above orbital plane
View from above satellite
View from above satellite

Ground track
Ground track

The orbit data is extracted from the following two-line orbital elements,

1 39444U 13066AE  19287.93274930 +.00000265 +00000-0 +38896-4 0  9995
2 39444 097.5597 296.8463 0058060 001.2004 358.9339 14.81989023316850
Epoch (UTC): 14 October 2019 22:23:09
Eccentricity: 0.0058060
inclination: 97.5597°
perigee height: 582 km
apogee height: 664 km
right ascension of ascending node: 296.8463°
argument of perigee: 1.2004°
revolutions per day: 14.81989023
mean anomaly at epoch: 358.9339°
orbit number at epoch: 31685

The dashed part of the orbit path shows where the satellite is in the earth's shadow,  

DLR